Weather History for Corpus Christi, TX

Change the Weather History Date:

Monday, August 13, 2012

  Actual Average Record
Temperature  
Mean Temperature 89 °F 85 °F  
Max Temperature 100 °F 95 °F 103 °F (1962)
Min Temperature 77 °F 75 °F 64 °F (1967)
Degree Days  
Heating Degree Days 0 0  
Month to date heating degree days 0 0  
Since 1 June heating degree days 0 0  
Since 1 July heating degree days 0 0  
Cooling Degree Days 24 20  
Month to date cooling degree days 292 260  
Year to date cooling degree days 2792 2210  
Since 1 June cooling degree days 1559 1369  
Growing Degree Days 38 (Base 50)    
Moisture  
Dew Point 74 °F    
Average Humidity 62    
Maximum Humidity 85    
Minimum Humidity 39    
Precipitation  
Precipitation 0.00 in 0.08 in 2.98 in (1960)
Month to date precipitation 0.09 0.83  
Year to date precipitation 14.39 17.25  
Snow  
Snow 0.00 in - - ()
Month to date snowfall 0.0  
Since 1 June snowfall 0.0  
Since 1 July snowfall 0.0  
Snow Depth 0.00 in    
Sea Level Pressure  
Sea Level Pressure 29.97 in    
Wind  
Wind Speed 12 mph (SSE)    
Max Wind Speed 24 mph    
Max Gust Speed 30 mph    
Visibility 10 miles    
Events      
T = Trace of Precipitation, MM = Missing Value Source: NWS Daily Summary

Daily Weather History Graph

Daily Weather History Graph

Search for Another Location

Airport:

Trip Planner

Search our weather history database for the weather conditions in past years. The results will help you decide how hot, cold, wet, or windy it might be!

Date:

Astronomy

Aug. 13, 2012 Rise Set
Actual Time 6:59 AM CDT 8:09 PM CDT
Civil Twilight 6:35 AM CDT 8:34 PM CDT
Nautical Twilight 6:05 AM CDT 9:03 PM CDT
Astronomical Twilight 5:35 AM CDT 9:33 PM CDT
Moon 3:14 AM CDT (8/13) 5:13 PM CDT (8/13)
Length of Visible Light 13h 58m
Length of Day
13h 09m
Waning Crescent, 16% of the Moon is Illuminated
Aug 13
Waning Crescent
Aug 17
New
Aug 24
First Quarter
Aug 31
Full
Sep 8
Last Quarter

Hourly Weather History & Observations

Time (CDT) Temp. Heat Index Dew Point Humidity Pressure Visibility Wind Dir Wind Speed Gust Speed Precip Events Conditions
12:51 AM 82.0 °F 88.6 °F 75.0 °F 79% 29.97 in 10.0 mi SSE 4.6 mph - N/A   Scattered Clouds
1:51 AM 82.0 °F 88.6 °F 75.0 °F 79% 29.98 in 10.0 mi South 5.8 mph - N/A   Partly Cloudy
2:51 AM 81.0 °F 86.7 °F 75.0 °F 82% 29.97 in 10.0 mi SSE 5.8 mph - N/A   Partly Cloudy
3:51 AM 80.1 °F 85.1 °F 75.0 °F 85% 29.96 in 10.0 mi SSE 6.9 mph - N/A   Partly Cloudy
4:51 AM 79.0 °F - 73.9 °F 84% 29.96 in 10.0 mi SSE 5.8 mph - N/A   Partly Cloudy
5:51 AM 79.0 °F - 73.9 °F 84% 29.96 in 10.0 mi South 3.5 mph - N/A   Partly Cloudy
6:51 AM 78.1 °F - 73.9 °F 87% 29.97 in 10.0 mi South 3.5 mph - N/A   Partly Cloudy
7:51 AM 81.0 °F 87.3 °F 75.9 °F 85% 29.99 in 10.0 mi SSE 5.8 mph - N/A   Partly Cloudy
8:51 AM 86.0 °F 96.9 °F 77.0 °F 74% 30.00 in 10.0 mi South 9.2 mph - N/A   Partly Cloudy
9:51 AM 89.1 °F 99.1 °F 75.0 °F 63% 30.01 in 10.0 mi South 11.5 mph - N/A   Scattered Clouds
10:51 AM 93.0 °F 100.7 °F 72.0 °F 50% 30.02 in 10.0 mi SSE 8.1 mph - N/A   Scattered Clouds
11:51 AM 93.9 °F 100.8 °F 71.1 °F 47% 30.02 in 10.0 mi SW 9.2 mph - N/A   Scattered Clouds
12:51 PM 97.0 °F 103.5 °F 70.0 °F 41% 30.00 in 10.0 mi Variable 6.9 mph - N/A   Mostly Cloudy
1:51 PM 96.1 °F 105.6 °F 73.0 °F 47% 29.98 in 10.0 mi ESE 12.7 mph 19.6 mph N/A   Mostly Cloudy
2:51 PM 98.1 °F 106.5 °F 71.1 °F 42% 29.95 in 10.0 mi ESE 13.8 mph 21.9 mph N/A   Scattered Clouds
3:51 PM 99.0 °F 106.2 °F 70.0 °F 39% 29.93 in 10.0 mi East 16.1 mph 23.0 mph N/A   Scattered Clouds
4:51 PM 98.1 °F 105.0 °F 70.0 °F 40% 29.92 in 10.0 mi SE 16.1 mph - N/A   Partly Cloudy
5:51 PM 93.0 °F 100.7 °F 72.0 °F 50% 29.92 in 10.0 mi SE 20.7 mph - N/A   Partly Cloudy
6:51 PM 91.0 °F 99.3 °F 73.0 °F 55% 29.92 in 10.0 mi SE 19.6 mph 26.5 mph N/A   Partly Cloudy
7:51 PM 89.1 °F 98.0 °F 73.9 °F 61% 29.94 in 10.0 mi SSE 20.7 mph - N/A   Partly Cloudy
8:51 PM 87.1 °F 96.3 °F 75.0 °F 67% 29.95 in 10.0 mi SSE 20.7 mph - N/A   Partly Cloudy
9:51 PM 86.0 °F 96.0 °F 75.9 °F 72% 29.96 in 10.0 mi SSE 16.1 mph - N/A   Partly Cloudy
10:51 PM 84.9 °F 94.1 °F 75.9 °F 74% 29.97 in 10.0 mi SSE 13.8 mph - N/A   Partly Cloudy
11:51 PM 84.9 °F 94.1 °F 75.9 °F 74% 29.97 in 10.0 mi South 13.8 mph - N/A   Partly Cloudy